EMX33V EGNS-EGAC

Flight info

Callsign EMX33V
Flight time 0h 17m
Altitude 14000
Route DCT IOM DCT NELBO DCT MAGEE DCT
Aircraft RJ70/M-SDFGIRWY/LB1

Departure

Time 2026-05-08 07:30
Airport Isle of Man Airport (EGNS)

Arrival

Time 2026-05-08 07:47
Airport George Best Belfast City Airport (EGAC)
Time Latitude Longitude Altitude Speed Heading
2026-05-08 07:06 54.08609 -4.63373 45 ft 0 kts 44°
2026-05-08 07:16 54.08597 -4.63396 43 ft 4 kts 58°
2026-05-08 07:16 54.08591 -4.63439 43 ft 4 kts 99°
2026-05-08 07:16 54.08601 -4.63473 40 ft 1 kts 134°
2026-05-08 07:16 54.08602 -4.63473 41 ft 0 kts 134°
2026-05-08 07:19 54.08595 -4.63462 42 ft 7 kts 134°
2026-05-08 07:20 54.08534 -4.63354 45 ft 18 kts 134°
2026-05-08 07:20 54.08453 -4.63249 43 ft 8 kts 170°
2026-05-08 07:20 54.08444 -4.63246 43 ft 0 kts 170°
2026-05-08 07:20 54.08422 -4.63237 43 ft 5 kts 145°
2026-05-08 07:21 54.08400 -4.63126 43 ft 15 kts 76°
2026-05-08 07:21 54.08422 -4.62913 39 ft 20 kts 78°
2026-05-08 07:21 54.08452 -4.62679 42 ft 19 kts 75°
2026-05-08 07:21 54.08480 -4.62477 44 ft 16 kts 79°
2026-05-08 07:22 54.08498 -4.62307 50 ft 14 kts 78°
2026-05-08 07:22 54.08523 -4.62131 44 ft 19 kts 77°
2026-05-08 07:22 54.08559 -4.61863 43 ft 29 kts 77°
2026-05-08 07:22 54.08605 -4.61489 41 ft 35 kts 79°
2026-05-08 07:23 54.08642 -4.61173 41 ft 8 kts 78°
2026-05-08 07:23 54.08643 -4.61170 41 ft 0 kts 78°
2026-05-08 07:27 54.08652 -4.61098 41 ft 14 kts 78°
2026-05-08 07:27 54.08674 -4.60868 41 ft 19 kts 109°
2026-05-08 07:28 54.08567 -4.60759 41 ft 20 kts 172°
2026-05-08 07:28 54.08523 -4.60789 41 ft 7 kts 283°
2026-05-08 07:28 54.08525 -4.60819 41 ft 0 kts 250°
2026-05-08 07:29 54.08525 -4.60822 41 ft 4 kts 253°
2026-05-08 07:29 54.08461 -4.61334 41 ft 87 kts 258°
2026-05-08 07:29 54.08282 -4.62674 327 ft 126 kts 256°
2026-05-08 07:30 54.08059 -4.64190 998 ft 141 kts 254°
2026-05-08 07:30 54.07772 -4.65811 1887 ft 144 kts 252°
2026-05-08 07:30 54.07447 -4.67647 2337 ft 182 kts 252°
2026-05-08 07:30 54.07099 -4.69885 2854 ft 207 kts 257°
2026-05-08 07:31 54.07031 -4.72289 3932 ft 209 kts 273°
2026-05-08 07:31 54.07460 -4.74781 4600 ft 231 kts 298°
2026-05-08 07:31 54.08576 -4.76870 5329 ft 250 kts 320°
2026-05-08 07:31 54.09970 -4.78715 6262 ft 257 kts 320°
2026-05-08 07:32 54.11388 -4.80646 7133 ft 266 kts 318°
2026-05-08 07:32 54.12838 -4.82699 7994 ft 274 kts 317°
2026-05-08 07:32 54.14328 -4.84859 8758 ft 287 kts 317°
2026-05-08 07:32 54.15875 -4.87098 9662 ft 295 kts 317°
2026-05-08 07:33 54.17477 -4.89333 10575 ft 299 kts 319°
2026-05-08 07:33 54.19087 -4.91545 11581 ft 295 kts 318°
2026-05-08 07:33 54.20700 -4.93775 11864 ft 311 kts 317°
2026-05-08 07:33 54.22378 -4.96219 12147 ft 323 kts 315°
2026-05-08 07:34 54.24036 -4.98695 13129 ft 310 kts 315°
2026-05-08 07:34 54.25647 -5.01102 14001 ft 303 kts 315°
2026-05-08 07:34 54.27265 -5.03549 14173 ft 318 kts 314°
2026-05-08 07:34 54.28890 -5.06071 14231 ft 311 kts 313°
2026-05-08 07:35 54.30451 -5.08563 14335 ft 306 kts 314°
2026-05-08 07:35 54.32100 -5.10854 14323 ft 307 kts 320°
2026-05-08 07:35 54.33969 -5.12763 14264 ft 320 kts 330°
2026-05-08 07:35 54.36039 -5.14245 14499 ft 322 kts 333°
2026-05-08 07:36 54.37887 -5.16410 14057 ft 325 kts 308°
2026-05-08 07:36 54.38998 -5.19758 13235 ft 322 kts 284°
2026-05-08 07:36 54.39456 -5.23438 12367 ft 321 kts 277°
2026-05-08 07:36 54.39831 -5.27187 11534 ft 318 kts 278°
2026-05-08 07:37 54.40258 -5.30965 10693 ft 320 kts 279°
2026-05-08 07:37 54.40714 -5.34636 10230 ft 309 kts 281°
2026-05-08 07:37 54.41187 -5.38189 9573 ft 305 kts 281°
2026-05-08 07:37 54.41664 -5.41661 9045 ft 281 kts 281°
2026-05-08 07:38 54.42133 -5.44888 8565 ft 277 kts 282°
2026-05-08 07:38 54.42611 -5.48074 8006 ft 276 kts 282°
2026-05-08 07:38 54.43115 -5.51253 7434 ft 275 kts 283°
2026-05-08 07:38 54.43618 -5.54439 6848 ft 275 kts 281°
2026-05-08 07:39 54.43956 -5.57634 6486 ft 267 kts 277°
2026-05-08 07:39 54.44241 -5.60744 6037 ft 259 kts 277°
2026-05-08 07:39 54.44513 -5.63795 5591 ft 257 kts 277°
2026-05-08 07:39 54.44767 -5.66784 5296 ft 250 kts 275°
2026-05-08 07:40 54.44897 -5.69703 5085 ft 240 kts 269°
2026-05-08 07:40 54.44890 -5.72532 4843 ft 235 kts 269°
2026-05-08 07:40 54.44914 -5.75346 4427 ft 237 kts 270°
2026-05-08 07:40 54.44968 -5.78129 4103 ft 233 kts 272°
2026-05-08 07:41 54.45059 -5.80915 3856 ft 230 kts 274°
2026-05-08 07:41 54.45227 -5.83583 3833 ft 218 kts 278°
2026-05-08 07:41 54.45490 -5.86124 3608 ft 218 kts 281°
2026-05-08 07:41 54.45810 -5.88674 3321 ft 218 kts 282°
2026-05-08 07:42 54.46140 -5.91177 3175 ft 210 kts 282°
2026-05-08 07:42 54.46439 -5.93595 3052 ft 199 kts 281°
2026-05-08 07:42 54.46899 -5.95625 3108 ft 167 kts 304°
2026-05-08 07:42 54.47673 -5.96962 3009 ft 152 kts 322°
2026-05-08 07:43 54.48513 -5.97937 2934 ft 150 kts 324°
2026-05-08 07:43 54.49425 -5.98998 2779 ft 166 kts 324°
2026-05-08 07:43 54.50393 -6.00150 2614 ft 167 kts 324°
2026-05-08 07:43 54.51450 -6.00486 2619 ft 149 kts
2026-05-08 07:44 54.52380 -5.99785 2456 ft 151 kts 32°
2026-05-08 07:44 54.53162 -5.98512 2158 ft 155 kts 45°
2026-05-08 07:44 54.53899 -5.97238 1984 ft 150 kts 43°
2026-05-08 07:44 54.54643 -5.96045 1840 ft 142 kts 40°
2026-05-08 07:45 54.55374 -5.94961 1628 ft 137 kts 37°
2026-05-08 07:45 54.56146 -5.94018 1436 ft 132 kts 32°
2026-05-08 07:45 54.56890 -5.93170 1194 ft 127 kts 32°
2026-05-08 07:45 54.57598 -5.92297 956 ft 123 kts 37°
2026-05-08 07:46 54.58278 -5.91453 775 ft 117 kts 32°
2026-05-08 07:46 54.58948 -5.90660 572 ft 116 kts 35°
2026-05-08 07:46 54.59615 -5.89868 426 ft 121 kts 34°
2026-05-08 07:46 54.60320 -5.89030 336 ft 125 kts 34°
2026-05-08 07:47 54.61024 -5.88193 117 ft 116 kts 35°
2026-05-08 07:47 54.62297 -5.86671 23 ft 41 kts 33°
2026-05-08 07:48 54.62461 -5.86532 24 ft 17 kts 15°
2026-05-08 07:48 54.62426 -5.86511 26 ft 13 kts 216°
2026-05-08 07:48 54.62328 -5.86604 24 ft 19 kts 216°
2026-05-08 07:48 54.62206 -5.86783 23 ft 28 kts 216°
2026-05-08 07:49 54.62023 -5.86997 20 ft 32 kts 215°
2026-05-08 07:49 54.61854 -5.87203 23 ft 15 kts 215°
2026-05-08 07:49 54.61842 -5.87216 23 ft 1 kts 202°
2026-05-08 07:49 54.61818 -5.87131 20 ft 16 kts 117°
2026-05-08 07:50 54.61748 -5.86983 21 ft 15 kts 166°
2026-05-08 07:50 54.61710 -5.87015 21 ft 8 kts 212°
2026-05-08 07:50 54.61435 -5.87222 20 ft 0 kts 124°